RH
33 34 37 41 46 50 50 51 61 61 58 62 58 53 51 48 50 47 42 37 39 36 29 35 39 35 37 40 44 45 43 46 50 54 57 55 56 55 51 46 44 47 48 46 45 48 45 43 44 43 42 41 41 41 44 47 48 49 48 49 48 47 47 46 46 46 45 44 43 42 42 41 38 35 36 41 38 32 31 34 37 39 42 40 34 31 31 33 35 37 36 37 39 42 44 38 35
33 37 39 41 43 45 49 51 56 58 59 62 55 49 47 45 48 45 36 33 36 33 29 35 38 35 36 40 42 45 44 46 47 48 52 49 46 47 47 47 44 46 46 40 40 45 43 40 42 42 40 39 38 39 41 43 45 46 46 47 47 46 46 46 47 47 46 45 43 41 40 38 37 36 37 41 37 32 31 32 32 33 36 38 37 34 34 37 38 38 38 37 40 43 42 38 33
31 37 39 37 38 41 46 48 50 55 58 56 52 48 42 42 46 40 33 33 33 32 33 35 39 36 40 48 44 45 48 46 44 45 50 49 46 44 42 44 45 46 43 39 39 41 41 39 40 40 39 38 38 39 40 41 42 42 44 45 46 46 47 48 49 48 48 47 44 41 38 37 37 37 40 42 39 35 32 31 29 29 29 33 39 40 37 39 39 39 40 37 39 42 41 38 33
30 34 35 33 37 42 46 47 47 52 53 47 47 44 38 40 40 36 33 34 33 33 35 37 45 41 43 55 49 48 49 42 41 43 47 46 45 44 40 42 42 39 37 38 40 40 40 38 38 39 38 37 37 38 40 41 41 42 42 44 45 46 48 49 51 51 51 49 46 42 39 38 39 39 42 43 41 39 35 31 27 27 27 27 34 42 40 39 40 40 41 39 39 40 39 37 32
29 32 31 30 37 44 45 47 45 45 44 40 40 38 37 38 35 36 34 34 35 33 34 40 48 46 44 49 47 48 46 41 39 39 44 43 38 39 40 42 41 37 35 37 39 39 39 38 38 37 36 34 34 37 38 40 41 42 42 43 45 46 48 51 53 53 53 51 47 43 41 41 40 42 44 44 44 42 40 33 27 26 27 25 27 35 39 39 41 41 42 41 40 38 36 35 32
29 31 29 31 37 40 41 44 44 41 36 35 34 33 35 34 33 34 35 37 36 33 34 40 41 43 47 44 46 44 37 39 38 36 41 40 36 37 38 40 40 39 37 38 41 40 40 42 41 38 36 34 33 35 37 38 40 42 43 44 45 46 48 50 52 53 53 50 48 45 44 43 42 43 45 45 45 42 39 34 28 27 28 28 27 28 32 36 40 41 44 44 41 38 35 34 33
29 30 31 34 37 38 39 39 38 35 31 30 28 27 31 31 32 34 35 35 35 36 36 38 35 42 50 44 45 40 31 31 32 33 37 37 34 35 36 36 38 38 38 40 43 42 41 45 44 41 38 36 34 34 37 38 39 41 42 43 44 46 46 48 50 52 52 49 48 46 44 44 43 45 47 46 46 40 36 34 30 30 31 31 32 31 30 33 38 40 43 46 44 40 36 34 32
28 29 32 36 39 37 36 34 31 28 25 25 23 20 25 28 29 30 34 33 33 36 38 40 35 40 47 43 46 41 31 27 28 32 31 32 32 33 34 35 35 35 36 40 41 38 38 43 44 42 39 37 35 35 38 38 39 40 41 42 44 46 46 47 49 50 48 47 47 45 43 44 45 49 51 48 44 38 35 35 34 33 32 30 31 32 29 29 35 39 41 44 43 41 37 34 30
26 27 31 35 38 35 31 30 28 25 21 23 23 19 21 26 26 26 30 32 32 33 38 38 30 39 42 41 48 42 33 27 29 31 29 29 29 32 34 33 32 32 36 39 38 34 37 40 41 42 40 37 36 37 39 40 41 42 43 44 45 47 48 48 50 48 45 46 45 42 43 46 49 52 53 49 42 36 36 37 35 34 30 29 27 26 25 25 30 36 39 39 40 40 39 34 31
24 26 32 35 34 30 27 26 25 24 22 23 24 20 19 23 24 25 27 29 30 31 37 32 28 41 38 38 47 40 35 31 31 31 29 30 28 31 35 36 33 31 33 36 35 34 37 39 40 42 41 39 37 38 39 41 43 44 45 45 47 48 49 50 51 48 46 47 41 37 42 46 51 53 52 50 43 37 39 39 36 33 29 31 29 28 27 24 27 32 35 35 35 38 39 36 33
24 26 31 34 31 26 23 24 24 23 24 22 22 20 17 20 22 23 24 26 29 29 34 33 31 36 32 38 46 41 38 33 32 31 30 31 28 31 35 38 36 32 31 30 31 33 34 36 39 41 41 39 38 39 41 42 44 45 46 47 48 49 49 50 51 49 48 46 38 36 42 45 49 52 51 49 44 39 40 39 34 31 30 34 33 31 32 27 28 31 32 33 33 35 35 35 35
25 27 31 33 28 23 20 21 24 23 24 22 19 17 17 20 21 19 20 24 28 29 32 32 28 29 33 41 46 47 42 33 31 28 28 30 30 32 36 40 38 35 33 29 28 29 31 34 36 40 40 40 39 40 42 44 45 44 45 46 49 49 50 50 51 50 49 47 38 36 42 45 47 51 50 48 44 41 41 39 35 31 31 36 34 31 33 31 29 30 31 33 33 33 33 35 35
25 28 32 33 29 25 20 18 21 23 23 22 19 17 16 18 20 17 18 21 25 29 29 24 21 27 36 43 48 48 39 32 30 25 25 32 32 33 38 40 39 37 36 34 29 27 30 32 34 38 39 40 40 41 42 42 42 42 43 45 48 50 50 49 48 47 47 47 39 36 42 46 47 49 51 49 46 45 44 41 37 34 31 34 34 31 32 32 29 30 31 33 33 33 34 35 36
26 27 30 32 30 25 19 17 19 24 24 21 20 18 15 17 19 19 19 20 20 22 22 21 20 25 31 37 46 47 36 30 29 24 27 35 34 34 39 39 37 37 36 37 33 29 30 32 34 38 38 40 41 41 40 38 40 43 47 50 52 49 46 45 45 44 44 47 43 36 41 46 47 48 51 50 49 47 47 44 41 38 33 32 32 29 31 32 31 31 32 33 33 32 34 36 37
27 27 28 32 31 24 20 19 18 23 24 22 20 16 15 16 18 20 20 18 16 18 20 24 25 25 27 28 35 37 30 28 27 25 29 35 33 34 37 36 36 36 35 37 36 33 34 35 36 37 41 43 42 39 37 39 44 48 54 57 56 50 45 44 45 47 47 48 46 39 40 46 48 50 51 50 50 49 50 49 44 40 35 34 33 27 29 32 32 32 32 32 32 32 35 38 40
26 27 29 35 34 25 22 22 20 21 21 21 19 14 14 15 17 19 18 14 15 20 21 24 25 25 25 24 26 26 24 25 25 26 32 33 31 32 33 33 34 35 34 35 37 36 36 37 36 40 47 46 44 44 41 42 45 50 56 57 54 53 50 47 46 49 53 54 51 44 42 47 50 53 53 51 51 51 52 53 50 42 38 37 37 30 27 30 32 32 32 31 32 33 36 39 42
24 25 29 36 33 26 23 21 20 20 17 17 16 13 13 13 15 17 16 17 19 21 21 22 23 24 25 23 23 21 21 24 24 27 31 31 30 32 32 32 33 33 33 32 35 37 36 37 36 44 50 45 43 46 45 45 46 50 56 55 54 57 55 51 48 51 55 55 55 52 47 47 52 55 56 53 51 51 52 56 54 45 39 38 39 36 29 28 30 31 31 31 32 34 36 40 44
22 24 29 35 31 25 23 19 20 20 16 15 14 13 14 14 15 15 16 20 20 21 21 22 21 22 24 24 24 22 21 22 24 26 28 29 30 31 32 34 34 34 34 30 32 35 37 37 36 42 45 43 42 42 44 44 46 51 56 56 54 56 56 55 54 54 56 55 55 57 52 49 54 59 59 55 51 51 53 56 57 50 42 39 40 39 33 28 29 30 30 31 32 34 37 41 44
22 22 27 33 30 24 21 20 20 21 19 16 14 14 15 16 17 17 18 19 20 21 22 22 20 23 26 25 26 25 22 22 24 25 26 28 29 30 31 33 34 34 35 33 31 32 35 37 36 38 37 39 41 41 43 43 45 50 55 57 55 54 54 56 57 56 58 58 57 59 57 54 58 62 62 59 55 56 56 56 60 58 49 43 42 42 38 31 29 29 30 30 32 34 36 43 46
23 23 24 27 26 22 21 21 20 21 21 19 16 16 17 18 18 19 19 18 21 22 21 21 22 28 32 29 28 27 26 24 24 26 27 28 30 31 30 31 33 34 34 34 32 30 32 35 36 36 32 34 39 41 44 46 47 51 56 59 57 54 54 54 56 55 56 59 59 60 62 60 61 66 67 64 62 63 64 63 64 64 60 51 46 46 43 37 31 28 28 29 30 33 36 43 47
22 22 23 23 23 21 21 22 21 21 22 21 20 19 18 18 19 19 19 19 21 22 21 20 23 28 31 31 30 28 28 27 26 27 29 31 33 33 32 31 31 32 33 34 35 32 30 33 33 33 30 29 35 39 43 46 48 52 57 60 56 52 53 55 56 56 56 58 59 61 64 63 64 68 71 68 66 67 70 71 69 67 68 63 53 48 45 42 36 29 26 27 29 32 35 42 48
22 22 23 22 22 23 22 22 22 22 21 21 21 21 20 19 19 19 19 20 20 21 20 19 20 23 28 31 31 29 29 29 28 28 31 32 34 34 33 33 32 33 35 35 36 33 30 31 33 31 27 28 32 36 41 45 47 51 56 59 57 53 53 56 58 57 56 57 58 61 64 66 71 73 73 73 73 73 74 73 71 70 71 70 60 46 42 42 40 34 27 25 28 31 34 42 48
22 23 23 23 23 23 23 23 22 22 21 19 20 21 20 20 20 19 19 20 20 20 20 19 18 20 27 32 31 31 30 29 28 27 29 31 33 34 33 33 34 35 36 35 36 35 32 30 33 30 24 26 32 36 40 43 46 51 55 59 58 54 53 56 57 56 55 57 59 61 63 68 75 75 74 75 76 76 74 71 73 75 72 71 65 49 42 44 42 38 32 26 27 29 34 42 47
22 23 23 22 22 22 23 23 22 22 20 19 19 20 19 20 20 20 20 20 21 22 21 21 20 20 24 29 32 33 31 29 29 28 29 30 31 32 32 32 34 35 36 37 36 37 35 30 33 30 21 23 29 33 37 39 44 50 55 58 57 55 54 55 55 55 55 57 59 61 65 70 75 75 72 73 74 74 72 70 76 79 72 71 71 60 52 50 44 39 38 35 29 29 36 42 46
21 22 22 22 21 21 21 21 21 20 20 19 19 19 19 19 20 20 21 21 22 22 22 22 22 21 24 29 31 31 30 31 31 32 32 33 34 33 33 33 33 36 37 38 38 39 38 32 33 30 20 20 25 30 34 38 42 48 54 55 54 53 52 52 53 53 54 57 60 63 67 70 72 73 71 70 73 75 73 72 78 80 74 73 74 70 64 57 50 44 43 43 37 35 39 42 45
19 20 21 21 20 19 18 19 20 19 20 20 19 20 19 19 22 22 23 25 23 22 23 24 24 23 25 28 28 27 28 30 34 37 37 36 37 37 36 35 35 37 38 39 40 42 42 37 36 33 23 20 23 25 31 36 41 46 50 51 50 51 50 50 51 51 53 57 62 65 64 65 66 69 70 71 73 75 74 73 77 80 77 77 75 75 71 60 53 50 47 45 42 41 41 41 43
20 20 20 19 19 19 17 17 17 17 19 20 20 20 20 21 22 24 25 25 24 26 26 25 25 25 25 27 28 27 28 31 35 39 39 38 38 39 39 38 37 37 39 40 41 43 45 42 40 37 29 25 24 25 28 33 38 43 46 48 47 48 49 50 50 52 53 57 62 63 63 62 62 64 68 71 72 72 73 73 76 80 80 82 80 78 74 61 52 51 49 47 45 44 41 40 42
19 19 21 20 19 19 17 17 17 18 18 20 20 20 20 22 24 25 24 23 26 31 31 27 25 25 25 27 28 28 28 32 33 32 36 38 39 40 41 40 39 38 39 40 42 44 46 44 42 41 35 30 29 27 28 32 36 41 46 48 47 46 48 50 52 55 56 57 61 63 63 63 63 64 65 67 67 68 71 72 76 80 80 83 82 79 75 63 54 50 49 49 47 45 41 40 42
17 18 20 20 21 20 19 19 19 20 19 18 19 19 21 24 25 25 25 26 30 33 31 27 25 24 25 26 28 30 29 29 32 34 36 39 39 39 41 42 41 40 40 39 42 44 45 44 42 43 41 34 32 31 30 32 36 38 43 47 48 47 49 52 54 57 58 59 61 63 64 66 66 67 66 64 63 65 70 73 78 81 80 81 82 80 76 68 57 52 50 48 46 43 40 41 45
19 18 18 19 23 22 21 21 20 20 20 18 18 19 21 24 24 24 26 29 31 31 30 28 26 24 25 26 28 31 30 28 34 39 40 41 40 39 41 44 43 42 42 40 41 42 44 43 41 44 46 38 33 32 31 33 35 35 39 45 48 49 50 51 51 54 57 59 60 62 64 66 67 66 65 63 62 66 71 75 80 82 81 81 81 79 79 74 59 52 52 47 43 41 41 43 46
20 20 21 23 24 23 24 24 22 22 21 18 18 20 21 23 23 24 24 27 28 28 29 30 31 29 27 29 29 32 32 30 35 38 39 42 40 37 40 44 45 43 44 42 41 41 42 40 39 42 46 45 37 33 33 34 34 31 37 44 45 44 46 46 47 50 53 55 57 61 63 64 64 64 64 64 65 68 72 75 78 81 82 82 81 78 80 79 62 53 52 47 43 42 43 45 45
23 26 28 26 24 24 26 24 23 25 25 21 20 20 19 22 24 23 22 22 24 26 28 31 33 31 29 30 31 33 32 30 33 35 37 41 39 36 37 42 46 46 44 43 42 41 41 38 38 39 43 48 44 37 35 37 35 30 31 38 40 40 39 38 41 44 47 50 53 57 61 61 61 61 60 62 65 68 72 76 78 79 82 83 81 79 81 83 69 56 54 50 46 45 45 45 43
30 31 32 29 26 25 25 25 26 26 27 25 22 20 19 21 23 22 22 24 25 26 28 31 32 32 31 31 32 34 33 31 34 36 36 36 38 38 37 37 43 46 45 44 43 42 41 38 36 37 39 45 48 43 39 39 35 30 26 28 34 37 35 35 37 38 40 44 50 54 58 59 59 57 55 57 61 67 71 75 78 80 82 83 81 79 79 82 74 60 58 56 49 47 44 44 45
31 29 28 27 24 22 20 23 26 26 28 28 26 23 20 19 21 25 28 28 27 26 30 32 32 32 31 30 33 34 33 33 35 36 35 33 36 39 39 35 38 45 46 45 45 43 40 36 35 36 38 44 48 46 43 42 36 31 28 25 29 33 34 36 37 38 37 38 45 50 54 56 58 57 56 56 58 64 71 74 78 80 81 82 81 78 75 77 74 60 57 56 49 45 45 45 49
26 23 22 22 21 20 20 23 26 27 27 27 28 28 22 19 22 28 29 27 25 26 31 32 30 31 32 33 36 34 31 32 33 35 35 33 36 39 39 38 39 42 44 45 46 44 41 37 35 36 37 42 48 47 45 44 39 34 32 29 30 32 33 36 37 38 38 38 41 44 49 53 57 59 57 56 56 61 70 74 77 79 79 79 79 78 75 74 74 66 59 56 50 47 46 48 54
22 22 21 21 20 21 25 28 27 27 29 28 30 29 23 19 20 21 22 23 24 26 31 33 32 33 34 35 37 36 33 33 33 35 36 33 34 38 39 43 49 48 44 46 47 46 44 40 36 35 36 41 47 49 47 46 44 40 36 34 33 33 33 34 36 36 36 38 41 44 49 53 57 59 55 56 58 61 68 72 74 76 75 77 77 77 78 75 75 73 66 60 56 52 52 55 59
22 22 21 22 22 26 32 32 29 30 30 29 29 27 22 20 19 19 21 23 24 25 29 32 34 35 34 35 38 39 37 35 34 35 37 33 33 39 40 44 55 57 50 46 47 47 48 45 38 34 34 39 43 46 47 48 49 47 42 38 36 35 35 35 35 34 34 36 41 45 49 53 56 58 56 55 58 62 68 72 73 75 74 74 73 73 76 76 77 77 70 65 63 59 59 61 65
24 24 24 25 28 33 34 33 33 31 27 25 25 23 21 21 21 21 25 28 27 26 27 29 32 34 36 36 38 39 37 35 34 34 35 32 32 39 42 42 48 57 58 52 49 49 49 48 43 36 34 37 40 43 45 47 50 50 48 44 40 38 38 36 36 37 37 36 39 42 47 53 55 58 60 58 56 58 64 71 73 73 74 74 72 71 73 74 77 79 75 71 69 67 65 67 73
26 28 29 30 32 33 33 32 32 28 23 22 21 22 24 24 23 25 31 35 34 31 29 30 31 33 37 37 36 37 37 37 36 35 34 31 33 39 42 42 44 51 58 56 53 51 50 50 48 42 36 36 39 41 41 43 47 50 51 49 44 40 39 37 36 37 39 37 37 39 42 47 50 56 61 60 56 55 59 66 73 74 73 74 74 73 73 74 76 79 79 76 75 75 73 74 79
30 33 32 33 33 32 32 29 27 24 21 21 24 29 31 29 29 31 33 34 34 34 32 32 34 34 38 37 35 37 38 38 38 36 34 33 37 40 41 43 45 50 57 59 58 53 49 50 51 48 41 37 38 38 38 40 44 48 51 52 48 42 40 40 39 39 40 38 37 38 38 40 46 53 59 60 58 57 57 64 73 76 74 74 75 74 75 77 78 78 79 78 75 77 78 76 78
33 33 32 33 32 28 27 25 23 22 21 23 28 33 32 31 33 33 32 31 32 36 35 33 35 36 38 37 35 38 39 39 39 36 35 36 39 41 43 45 46 50 58 63 64 58 50 48 50 51 48 43 39 37 37 40 43 47 49 51 51 47 42 42 42 42 43 41 35 34 35 37 41 48 54 57 59 59 59 62 67 72 75 74 73 72 74 77 79 79 80 79 76 79 81 78 78
30 31 32 31 28 24 23 23 22 22 22 25 28 31 32 32 33 33 33 34 35 37 36 33 35 37 38 38 37 40 40 39 38 38 40 41 41 41 43 46 45 45 50 54 62 64 57 50 48 50 51 48 44 40 37 38 40 44 48 50 51 50 46 43 43 42 43 44 38 33 32 34 37 43 49 54 59 61 62 63 64 67 73 73 71 71 72 74 76 78 79 79 79 80 82 81 81
26 27 27 25 23 22 22 22 22 21 22 24 29 33 35 33 32 33 34 36 36 36 34 33 36 38 39 40 41 43 43 41 41 43 45 44 43 41 41 45 46 45 45 45 51 61 63 55 48 48 50 49 47 44 39 38 38 41 46 49 50 51 49 45 44 44 44 45 43 39 35 33 37 42 46 52 59 63 66 67 65 65 68 71 72 73 73 74 75 76 76 77 78 79 78 80 84
24 23 22 22 22 21 22 22 22 23 23 26 31 35 34 33 33 35 35 35 36 37 38 37 38 41 43 42 43 45 45 44 44 46 46 44 44 44 42 44 46 45 45 43 45 56 64 61 53 47 48 50 49 46 42 38 37 39 43 47 49 50 50 49 47 46 46 44 46 46 41 37 37 41 44 48 54 60 66 69 67 64 65 69 73 74 74 74 75 76 75 76 77 76 76 79 84
22 21 21 21 22 21 22 23 25 28 28 29 33 35 35 36 37 38 37 36 37 40 40 38 40 45 47 44 44 47 48 46 46 46 44 43 45 44 41 42 42 42 44 43 43 50 61 66 63 54 47 47 49 49 45 40 38 39 43 46 49 50 50 50 50 48 46 46 47 48 46 41 38 38 41 44 48 55 62 67 69 68 64 66 71 73 73 75 76 78 76 76 76 75 77 76 77
21 21 21 21 21 22 23 27 30 31 31 30 33 35 37 38 37 37 38 37 36 37 38 40 46 49 46 44 46 49 49 47 47 46 41 40 43 42 40 40 41 40 41 42 43 47 56 65 69 62 51 47 47 48 49 44 39 41 45 47 47 49 50 49 50 50 49 49 49 48 47 45 40 36 37 40 45 50 56 61 66 70 68 67 69 70 71 75 78 81 79 79 79 77 78 74 72
21 21 21 20 20 21 22 27 31 33 33 32 34 36 36 37 36 38 41 40 34 35 39 42 47 47 43 43 45 46 47 46 47 46 39 37 39 36 34 39 41 39 39 43 46 49 54 58 62 63 57 50 47 47 49 48 45 42 45 48 47 48 49 49 49 50 50 51 51 49 47 46 43 38 35 37 41 46 51 56 61 69 73 72 70 67 67 72 77 80 80 80 80 79 78 74 72
20 20 20 20 21 21 22 25 29 31 31 32 33 34 34 35 37 37 38 37 34 36 41 43 43 40 39 42 43 44 47 47 49 47 41 39 38 31 27 31 34 35 38 45 48 50 53 55 58 61 59 54 50 49 49 51 51 48 47 49 50 49 49 50 50 51 50 50 52 52 49 48 46 43 38 36 38 42 46 51 58 64 70 73 72 69 67 68 72 76 77 78 78 79 79 76 74
18 19 20 22 22 22 24 25 25 25 28 31 31 30 30 29 32 31 31 34 35 35 37 39 39 37 38 44 44 44 46 48 49 49 45 43 40 35 31 27 24 27 32 38 43 47 52 55 58 60 61 61 61 60 57 55 54 53 52 52 52 51 51 51 52 52 52 51 52 53 51 50 49 46 43 37 37 40 42 45 51 56 61 67 71 71 70 69 70 73 75 75 75 76 77 77 74
16 19 21 23 23 24 28 27 24 24 27 27 23 23 25 24 27 31 33 35 36 36 37 39 40 39 42 46 45 44 44 46 48 48 47 45 40 38 37 33 27 24 25 29 33 38 44 52 58 61 65 71 76 78 75 70 63 58 56 55 54 54 53 54 54 55 55 53 53 54 52 50 49 47 45 41 36 37 39 42 46 50 54 60 65 68 69 72 73 74 74 73 72 72 73 74 74
17 20 20 22 23 26 28 26 25 25 24 22 20 22 24 24 28 33 35 36 37 38 39 40 42 41 43 46 45 45 46 46 46 46 47 45 41 38 38 39 36 30 26 26 28 32 38 45 55 63 70 76 80 81 82 82 76 68 63 58 56 56 57 55 56 58 58 56 54 54 54 52 50 49 47 44 40 37 36 40 44 46 49 53 59 62 67 72 76 77 75 73 71 70 72 73 73
19 19 19 21 23 24 25 24 23 24 23 23 23 24 23 24 34 40 38 40 43 42 40 42 46 45 46 47 46 45 46 46 46 46 46 45 41 37 37 40 41 38 35 31 31 35 38 41 48 56 64 69 70 73 79 83 82 79 75 68 61 57 58 57 57 59 60 59 57 56 56 54 53 53 50 47 44 40 36 37 41 44 46 49 53 57 62 69 75 77 77 74 71 70 71 73 74
19 18 18 20 21 21 22 22 21 22 25 25 24 25 23 25 39 46 41 41 45 42 42 47 49 46 44 43 43 43 44 45 46 46 45 44 41 39 38 38 39 38 35 33 34 35 37 40 46 52 56 55 57 64 72 76 79 80 81 80 73 64 61 60 58 60 62 61 59 58 58 56 55 54 53 49 46 44 39 35 38 42 45 47 49 53 57 64 71 76 77 76 72 71 73 75 75
23 21 20 21 20 20 21 22 23 24 26 25 22 24 25 27 38 45 43 45 47 44 43 45 44 42 42 42 43 44 44 45 46 46 44 43 40 39 38 37 36 36 34 34 35 36 36 39 44 51 54 52 52 58 64 68 74 79 81 85 83 77 73 68 61 60 62 62 60 60 59 59 57 55 53 50 47 47 42 37 36 39 44 45 46 50 54 60 66 71 74 76 74 73 73 74 73
25 23 22 22 22 23 23 25 26 26 27 25 22 22 24 25 32 41 46 46 46 43 41 41 42 43 43 43 44 45 45 47 46 44 43 41 39 39 38 37 37 36 34 34 35 35 35 39 45 52 53 49 48 52 59 66 72 77 80 83 84 82 80 77 71 64 61 61 61 60 61 61 59 56 53 50 49 48 45 41 37 38 43 45 44 46 51 56 61 65 69 73 74 72 72 73 73
24 25 24 22 22 23 23 25 27 29 30 28 24 22 24 28 31 40 46 41 37 37 37 39 41 41 40 40 41 43 44 44 44 41 39 38 37 37 36 37 37 36 36 36 36 35 34 38 47 55 52 46 42 45 53 62 69 73 75 77 82 84 80 77 77 74 68 65 63 62 61 61 61 58 54 50 50 50 46 43 41 40 43 45 44 44 49 55 59 63 65 69 72 71 70 71 73
25 24 23 23 24 24 25 26 26 31 35 33 31 27 25 29 30 33 40 37 33 35 36 37 39 39 39 39 39 40 40 39 39 39 39 38 37 35 34 34 34 34 36 37 36 36 36 37 44 51 53 51 46 42 45 54 62 68 71 72 77 82 83 78 75 76 77 73 70 68 66 62 61 60 57 51 50 52 48 44 45 45 43 44 45 43 46 51 56 60 64 67 70 71 69 69 71
25 24 24 27 28 28 29 29 27 30 34 34 35 30 23 23 24 25 31 32 29 31 33 34 35 35 36 37 37 38 37 36 37 36 37 37 38 36 33 30 29 28 31 35 38 39 38 39 43 49 54 57 54 47 44 48 57 63 69 74 76 77 81 84 79 74 75 73 71 72 70 65 63 64 61 55 53 54 51 47 48 50 48 46 46 45 45 48 52 57 61 64 67 68 69 71 72